Regional Weather Roundup
Issued by NWS Grand Forks, ND

Home | Current Version | Previous Version | Text Only | Print | Product List | Glossary On
Versions: 1 2 3 4 5 6 7 8 9 10 11 12 13 14 15 16 17 18 19 20 21 22 23 24 25 26 27 28 29 30 31 32 33 34 35 36 37 38 39 40 41 42 43 44 45 46 47 48 49 50
000
ASUS43 KFGF 281410
RWRFGF
PRAIRIE TO PINES  WEATHER ROUNDUP
NATIONAL WEATHER SERVICE EASTERN NORTH DAKOTA/GRAND FORKS ND
900 AM CDT SAT MAR 28 2015

 **SATELLITE DATA USED TO AUGMENT SKY COVER AT AUTOMATED STATIONS**
 *****  WEATHER ACROSS EASTERN NORTH DAKOTA  *****

CITY           SKY/WX    TMP DP  RH WIND       PRES   REMARKS
GRAND FORKS    CLOUDY    27  22  81 S15       30.08F WCI  15
GRAND FRKS AFB MOSUNNY   27  22  79 S13       30.06F WCI  16
GRAND FRKS NWS   N/A     27 N/A N/A S16         N/A  WCI  14
DEVILS LAKE    CLOUDY    30  27  86 S14       29.96F WCI  20
FARGO          MOSUNNY   30  22  72 S16       30.11F WCI  19
WAHPETON ARPT  SUNNY     30  23  74 S16       30.13F WCI  19
$$

 ***** WEATHER ACROSS CENTRAL AND WESTERN NORTH DAKOTA  *****

CITY           SKY/WX    TMP DP  RH WIND       PRES   REMARKS
BISMARCK       FOG       29  28  96 SE10      29.95F VSB 1/4 WCI  20
MINOT          CLOUDY    30  28  92 SE10      29.84F FOG     WCI  21
JAMESTOWN      CLOUDY    31  27  85 S13       30.00F WCI  21
MINOT AFB      FRZ DRZL  30  30 100 SE12      29.83F VSB 1/2 WCI  21
GARRISON         N/A     30  29  96 SE10      29.87F WCI  21
WILLISTON      SUNNY     41  35  79 S6        29.75F
DICKINSON      SUNNY     43  34  70 S16       29.81F
HETTINGER      SUNNY     41  34  76 SE8       29.88F
$$

 *****  OTHER AIRPORT OBSERVATIONS IN OUR AREA  *****

CITY           SKY/WX    TMP DP  RH WIND       PRES   REMARKS
WALHALLA         N/A     28  28 100 S9        30.00F WCI  20
GRAFTON AIRPOR NOT AVBL
VALLEY CITY AR CLOUDY    28  28 100 S10       30.04F WCI  19
CANDO          NOT AVBL
CAVALIER APRT    N/A     27  23  86 S16       30.01F WCI  14
GWINNER          N/A     30  30 100 SE9         N/A  WCI  22
SHEYENNE NWR     N/A     29  24  82 S12       29.95S WCI  19
ROLLA          FOG       28  28 100 S9G17     29.90F VSB 1/4 WCI  20
 ***** THE ABOVE OBSERVATIONS ARE NON NWS ARE NOT QUALITY
       CONTROLLED AND MAY MIS-REPORT RAIN FOR SNOW...
$$

  *****  WEATHER ACROSS NORTHERN MINNESOTA  *****

CITY           SKY/WX    TMP DP  RH WIND       PRES   REMARKS
FLAG ISLAND    MOSUNNY   16  10  79 SE7       30.09F WCI   6
WARROAD        MOSUNNY   28  19  69 S7        30.10F WCI  21
ROSEAU         MOSUNNY   28  19  69 S12       30.10S WCI  18
HALLOCK        MOSUNNY   28  21  74 S18       30.06F WCI  16
THF RVR FALLS  SUNNY     27  21  80 S10       30.10F WCI  17
BAUDETTE       MOSUNNY   24  14  65 S6        30.11F WCI  17
WASKISH        MOSUNNY   27  16  63 CALM      30.14S
CROOKSTON      SUNNY     28  21  74 S17       30.11S WCI  16
STEPHEN NDAWN    N/A     28  21  74 S15         N/A  WCI  17
GREENBUSH NDAW   N/A     27  21  80 S12         N/A  WCI  16
$$
  *****  WEATHER ACROSS CENTRAL AND WEST MINNESOTA  *****

CITY           SKY/WX    TMP DP  RH WIND       PRES   REMARKS
FOSSTON        SUNNY     27  18  69 S12       30.11F WCI  16
BEMIDJI        MOSUNNY   24  15  68 S7        30.13S WCI  16
PARK RAPIDS    SUNNY     26  15  63 S9        30.14R WCI  17
ELBOW LAKE     CLOUDY    28  23  82 SE12      30.14F WCI  18
WADENA         SUNNY     27  18  69 SE8       30.15S WCI  18
DETROIT LAKES  SUNNY     28  23  80 S10       30.13S WCI  19
MOORHEAD       MOSUNNY   28  25  86 S14       30.13S WCI  17
FERGUS FALLS   SUNNY     28  19  69 S13       30.17S WCI  18
MORRIS MN      MOSUNNY   30  25  80 SE14      30.14F WCI  20
STAPLES        SUNNY     25  16  68 S6        30.17R WCI  18
$$
  *****  WEATHER ELSEWHERE ACROSS MINNESOTA  *****

CITY           SKY/WX    TMP DP  RH WIND       PRES   REMARKS
DULUTH         SUNNY     26  16  65 S5        30.19S WCI  20
INTRNTL FALLS  SUNNY     22  11  62 S5        30.14F WCI  16
ELY            SUNNY     21  10  63 SW6       30.17F WCI  14
CLOQUET        SUNNY     25  12  58 CALM      30.20S
WHEATON        PTSUNNY   28  27  93 SE10      30.16S WCI  19
BRAINERD       SUNNY     26  15  63 S5        30.19S WCI  20
HIBBING        SUNNY     20  12  71 VRB3      30.18F
ALEXANDRIA     SUNNY     28  20  71 S9        30.16S WCI  19
SAINT CLOUD    SUNNY     26  14  60 SE8       30.21S WCI  18
MINNEAPOLIS    SUNNY     26  12  55 SE7       30.26R WCI  18
$$

  *****  WEATHER ACROSS SOUTH DAKOTA  *****

CITY           SKY/WX    TMP DP  RH WIND       PRES   REMARKS
SIOUX FALLS    MOSUNNY   32  26  78 SE10      30.13R WCI  24
BROOKINGS      NOT AVBL
WATERTOWN      PTSUNNY   28  24  85 S12G18    30.09S WCI  18
HURON          SUNNY     31  25  78 SE12      30.08S WCI  22
SISSETON         N/A     26  25  96 S15       30.12S WCI  14
ABERDEEN       CLOUDY    33  26  75 SE15      30.06F WCI  23
MITCHELL       SUNNY     31  25  78 SE15G22   30.10R WCI  20
PIERRE         MOSUNNY   28  27  96 SE12      29.99S FOG     WCI  18
MOBRIDGE       SUNNY     29  26  89 SE10      29.95F WCI  20
RAPID CITY     SUNNY     40  34  79 E3        29.91F
$$

  *****  SOME WEATHER IN NEARBY STATES *****

CITY           SKY/WX    TMP DP  RH WIND       PRES   REMARKS
GLASGOW MT     SUNNY     40  34  79 E13       29.67F
GREAT FALLS MT PTCLDY    56  32  40 S10       29.64F
CHEYENNE WY    SUNNY     46  26  45 W9        30.09S
SCOTTSBLUFF NE MOSUNNY   39  30  70 W3        30.00S
OMAHA NE       MOSUNNY   37  25  61 SE14      30.16R
DES MOINES IA  CLOUDY    34  15  46 SE8       30.23R
DAVENPORT IA   SUNNY     26  16  65 S9        30.32R WCI  17
CHICAGO IL     MOSUNNY   28  13  53 N6        30.31R WCI  22
EAU CLAIRE WI  SUNNY     25  14  63 CALM      30.27R
LA CROSSE WI   SUNNY     27  18  69 SE7       30.30R WCI  19
$$

  *****  SOME NATIONAL WEATHER *****

CITY           SKY/WX    TMP DP  RH WIND       PRES   REMARKS
LA GUARDIA NY  CLOUDY    35  20  54 N17       29.82R WCI  25
RALEIGH NC     MOSUNNY   38  19  46 NW8G17    30.04R
ATLANTA GA     MOSUNNY   39  22  50 NW16G22   30.13R
NEW ORLEANS LA MOSUNNY   55  36  48 E9        30.25R
OKLAHOMA CITY  MOSUNNY   50  39  66 S12       30.03S
ALBUQUERQUE NM SUNNY     51  21  30 NE3       30.25R
SALT LAKE CITY PTCLDY    53  33  46 S10       30.09S
LOS ANGELES CA CLOUDY    58  58 100 E5        30.07R FOG
BOISE ID       CLOUDY    50  42  74 NW25G40   30.14R
SEATTLE WA     MOCLDY    49  43  80 SW20G26   30.19R
$$

*** WEATHER ACROSS MANITOBA...SASKATCHEWAN AND ONTARIO ***
                ***ONTARIO***

CITY           SKY/WX    TMP DP  RH WIND       PRES   REMARKS
GERALDTON      MOSUNNY   16   0  48 SW7       30.15S WCI   6
THUNDER BAY    MOSUNNY   16   9  73 VRB2      30.24F
SIOUX LOOKOUT  MOSUNNY   14   0  52 S5        30.11F WCI   6
TORONTO        MOSUNNY   18  -2  41 N15G22    30.19R WCI   3
BIG TROUT LK   SUNNY     16   9  73 SW5       29.93F WCI   9
PICKLE LAKE    MOSUNNY   19   1  45 SW6       30.04F WCI  11
DRYDEN         SUNNY     19   5  53 S10       30.09F WCI   8
KENORA         PTSUNNY   23   7  50 S10       30.07F WCI  12
$$
                *** MANITOBA***

CITY           SKY/WX    TMP DP  RH WIND       PRES   REMARKS
BRANDON        CLOUDY    30  28  93 S14       29.88F WCI  20
DAUPHIN        CLOUDY    34  28  80 SW7       29.81F
ISLAND LAKE    CLOUDY    27  23  86 SW10G17   29.84F WCI  17
PILOT MOUND    NOT AVBL
THE PAS        CLOUDY    30  27  86 S10G17    29.66F WCI  21
THOMPSON       CLOUDY    25  21  86 S10       29.64F WCI  15
WINNIPEG       PTSUNNY   27  21  80 S18G25    30.02F WCI  13
LYNN LAKE      FLURRIES  30  28  93 SW7       29.52F WCI  23
CHURCHILL      PTSUNNY   30  21  69 SW16G25   29.49F WCI  19
GILLAM         CLOUDY    21  18  86 SW17G25   29.68F WCI   7
$$
                ***SASKATCHEWAN***

CITY           SKY/WX    TMP DP  RH WIND       PRES   REMARKS
ESTEVAN        MOSUNNY   34  32  93 SE12      29.73F
KINDERSLEY     MOCLDY    43  37  81 W3        29.50F
LLOYDMINSTER   CLOUDY    37  34  87 NW14      29.48R
PRINCE ALBERT  CLOUDY    34  32  93 E8        29.48F
REGINA         NOT AVBL
YORKTON        CLOUDY    32  32 100 S14G22    29.70F FOG     WCI  22
N. BATTLEFORD  CLEAR     34  34 100 SE3       29.47S
LA RONGE       CLOUDY    34  32  93 N5        29.53S
SASKATOON      MOCLDY    39  36  87 S15       29.49F
SWIFT CURRENT  CLEAR     48  36  61 SW15      29.55F
$$
NOTE: THESE ARE AUTOMATED STATIONS WITH LIMITED QUALITY CONTROL
      "FAIR" INDICATES FEW OR NO CLOUDS BELOW 12,000 FEET WITH NO
      SIGNIFICANT WEATHER AND/OR OBSTRUCTIONS TO VISIBILITY.
      SKY/WX - SKY CONDITION AND SIGNIFICANT WEATHER.
      TMP - AIR TEMPERATURE.    DP   - DEWPOINT TEMPERATURE.
      RH  - RELATIVE HUMIDITY.  PRES - PRESSURE.
      HX  - HEAT INDEX.         WCI  - WIND CHILL INDEX.
$


USA.gov is the U.S. government's official web portal to all federal, state and local government web resources and services.